Time,TemperatureF,DewpointF,PressureIn,WindDirection,WindDirectionDegrees,WindSpeedMPH,WindSpeedGustMPH,Humidity,HourlyPrecipIn,Conditions,Clouds,dailyrainin,SoftwareType,DateUTC
2013-07-22 00:00:00,64.0,53.2,29.83,South,183,0.0,0.0,68,0.00,,,0.00,Wunderground v.1.15,2013-07-22 07:00:00,
2013-07-22 00:10:00,63.6,52.8,29.83,South,184,0.0,0.0,68,0.00,,,0.00,Wunderground v.1.15,2013-07-22 07:10:00,
2013-07-22 00:20:00,63.2,52.9,29.83,South,184,0.0,0.0,69,0.00,,,0.00,Wunderground v.1.15,2013-07-22 07:20:00,
2013-07-22 00:35:00,62.6,52.7,29.83,South,184,0.0,0.0,70,0.00,,,0.00,Wunderground v.1.15,2013-07-22 07:35:00,
2013-07-22 00:45:00,62.2,52.3,29.83,South,184,0.0,0.0,70,0.00,,,0.00,Wunderground v.1.15,2013-07-22 07:45:00,
2013-07-22 01:00:00,61.9,52.4,29.84,South,184,0.0,0.0,71,0.00,,,0.00,Wunderground v.1.15,2013-07-22 08:00:00,
2013-07-22 01:05:00,61.8,52.7,29.84,South,184,0.0,0.0,72,0.00,,,0.00,Wunderground v.1.15,2013-07-22 08:05:00,
2013-07-22 01:15:00,61.8,53.1,29.84,South,180,0.0,0.0,73,0.00,,,0.00,Wunderground v.1.15,2013-07-22 08:15:00,
2013-07-22 01:20:00,61.9,53.1,29.84,South,180,0.0,0.0,73,0.00,,,0.00,Wunderground v.1.15,2013-07-22 08:20:00,
2013-07-22 01:30:00,62.3,53.5,29.83,South,180,0.0,0.0,73,0.00,,,0.00,Wunderground v.1.15,2013-07-22 08:30:00,
2013-07-22 01:35:00,62.5,53.7,29.84,South,180,0.0,0.0,73,0.00,,,0.00,Wunderground v.1.15,2013-07-22 08:35:00,
2013-07-22 01:45:00,62.3,53.2,29.84,South,180,0.0,0.0,72,0.00,,,0.00,Wunderground v.1.15,2013-07-22 08:45:00,
2013-07-22 01:55:00,62.1,53.0,29.84,SSE,167,0.0,0.0,72,0.00,,,0.00,Wunderground v.1.15,2013-07-22 08:55:00,
2013-07-22 02:00:00,62.2,53.4,29.83,SSE,157,0.0,0.0,73,0.00,,,0.00,Wunderground v.1.15,2013-07-22 09:00:00,
2013-07-22 02:05:00,62.2,53.4,29.83,SSE,157,0.0,0.0,73,0.00,,,0.00,Wunderground v.1.15,2013-07-22 09:05:00,
2013-07-22 02:10:00,62.2,53.4,29.83,SSE,157,0.0,0.0,73,0.00,,,0.00,Wunderground v.1.15,2013-07-22 09:10:00,
2013-07-22 02:20:00,61.9,53.1,29.83,SSE,157,0.0,0.0,73,0.00,,,0.00,Wunderground v.1.15,2013-07-22 09:20:00,
2013-07-22 02:30:00,61.5,52.8,29.83,SSE,157,0.0,0.0,73,0.00,,,0.00,Wunderground v.1.15,2013-07-22 09:30:00,
2013-07-22 02:40:00,61.3,52.9,29.83,SSE,157,0.0,0.0,74,0.00,,,0.00,Wunderground v.1.15,2013-07-22 09:40:00,
2013-07-22 02:45:00,61.2,52.8,29.83,SSE,157,0.0,0.0,74,0.00,,,0.00,Wunderground v.1.15,2013-07-22 09:45:00,
2013-07-22 02:55:00,61.1,53.1,29.83,SSE,157,0.0,0.0,75,0.00,,,0.00,Wunderground v.1.15,2013-07-22 09:55:00,
2013-07-22 03:00:00,61.0,53.0,29.83,SSE,157,0.0,0.0,75,0.00,,,0.00,Wunderground v.1.15,2013-07-22 10:00:00,
2013-07-22 03:05:00,60.9,52.9,29.83,SSE,157,0.0,0.0,75,0.00,,,0.00,Wunderground v.1.15,2013-07-22 10:05:00,
2013-07-22 03:10:00,60.7,52.7,29.83,SSE,158,0.0,0.0,75,0.00,,,0.00,Wunderground v.1.15,2013-07-22 10:10:00,
2013-07-22 03:20:00,60.6,53.0,29.83,SSE,157,0.0,0.0,76,0.00,,,0.00,Wunderground v.1.15,2013-07-22 10:20:00,
2013-07-22 03:30:00,60.3,52.7,29.83,SSE,158,0.0,0.0,76,0.00,,,0.00,Wunderground v.1.15,2013-07-22 10:30:00,
2013-07-22 03:35:00,60.2,52.6,29.83,SSE,157,0.0,0.0,76,0.00,,,0.00,Wunderground v.1.15,2013-07-22 10:35:00,
2013-07-22 03:40:00,60.1,52.5,29.83,SSE,157,0.0,0.0,76,0.00,,,0.00,Wunderground v.1.15,2013-07-22 10:40:00,
2013-07-22 03:50:00,59.8,52.6,29.83,SSE,157,0.0,0.0,77,0.00,,,0.00,Wunderground v.1.15,2013-07-22 10:50:00,
2013-07-22 04:00:00,59.5,52.3,29.83,SSE,158,0.0,0.0,77,0.00,,,0.00,Wunderground v.1.15,2013-07-22 11:00:00,
2013-07-22 04:10:00,59.0,52.1,29.84,SSE,158,0.0,0.0,78,0.00,,,0.00,Wunderground v.1.15,2013-07-22 11:10:00,
2013-07-22 04:20:00,58.7,51.9,29.85,SSE,158,0.0,0.0,78,0.00,,,0.00,Wunderground v.1.15,2013-07-22 11:20:00,
2013-07-22 04:25:00,58.6,51.8,29.85,SSE,158,0.0,0.0,78,0.00,,,0.00,Wunderground v.1.15,2013-07-22 11:25:00,
2013-07-22 04:30:00,58.4,51.9,29.84,SSE,158,0.0,0.0,79,0.00,,,0.00,Wunderground v.1.15,2013-07-22 11:30:00,
2013-07-22 04:40:00,58.1,52.0,29.85,SSE,158,0.0,0.0,80,0.00,,,0.00,Wunderground v.1.15,2013-07-22 11:40:00,
2013-07-22 04:50:00,57.9,51.8,29.85,SSE,157,0.0,0.0,80,0.00,,,0.00,Wunderground v.1.15,2013-07-22 11:50:00,
2013-07-22 04:55:00,57.8,52.0,29.85,SSE,158,0.0,0.0,81,0.00,,,0.00,Wunderground v.1.15,2013-07-22 11:55:00,
2013-07-22 05:05:00,57.5,51.7,29.85,SSE,158,0.0,0.0,81,0.00,,,0.00,Wunderground v.1.15,2013-07-22 12:05:00,
2013-07-22 05:15:00,57.3,51.9,29.86,SSE,157,0.0,0.0,82,0.00,,,0.00,Wunderground v.1.15,2013-07-22 12:15:00,
2013-07-22 05:30:00,57.1,51.7,29.87,SSE,158,0.0,0.0,82,0.00,,,0.00,Wunderground v.1.15,2013-07-22 12:30:00,
2013-07-22 05:35:00,57.1,52.0,29.87,SSE,158,0.0,0.0,83,0.00,,,0.00,Wunderground v.1.15,2013-07-22 12:35:00,
2013-07-22 05:45:00,57.0,51.9,29.87,SSE,158,0.0,0.0,83,0.00,,,0.00,Wunderground v.1.15,2013-07-22 12:45:00,
2013-07-22 05:55:00,56.9,51.8,29.87,SSE,157,0.0,0.0,83,0.00,,,0.00,Wunderground v.1.15,2013-07-22 12:55:00,
2013-07-22 06:05:00,56.8,52.0,29.87,SSE,158,0.0,1.0,84,0.00,,,0.00,Wunderground v.1.15,2013-07-22 13:05:00,
2013-07-22 06:10:00,56.8,52.0,29.88,SSE,158,0.0,0.0,84,0.00,,,0.00,Wunderground v.1.15,2013-07-22 13:10:00,
2013-07-22 06:15:00,56.8,52.0,29.88,SSE,158,0.0,0.0,84,0.00,,,0.00,Wunderground v.1.15,2013-07-22 13:15:00,
2013-07-22 06:25:00,56.9,52.4,29.89,SSE,158,0.0,0.0,85,0.00,,,0.00,Wunderground v.1.15,2013-07-22 13:25:00,
2013-07-22 06:30:00,56.9,52.4,29.89,SSE,158,0.0,0.0,85,0.00,,,0.00,Wunderground v.1.15,2013-07-22 13:30:00,
2013-07-22 06:35:00,57.2,52.7,29.88,South,183,0.0,1.0,85,0.00,,,0.00,Wunderground v.1.15,2013-07-22 13:35:00,
2013-07-22 06:45:00,57.9,53.4,29.89,ESE,107,0.0,0.0,85,0.00,,,0.00,Wunderground v.1.15,2013-07-22 13:45:00,
2013-07-22 06:50:00,58.3,53.8,29.89,ESE,106,1.0,2.0,85,0.00,,,0.00,Wunderground v.1.15,2013-07-22 13:50:00,
2013-07-22 07:00:00,59.0,54.5,29.89,ESE,113,1.0,1.0,85,0.00,,,0.00,Wunderground v.1.15,2013-07-22 14:00:00,
2013-07-22 07:10:00,59.4,54.6,29.89,ESE,113,0.0,0.0,84,0.00,,,0.00,Wunderground v.1.15,2013-07-22 14:10:00,
2013-07-22 07:25:00,61.0,55.8,29.89,ESE,113,0.0,0.0,83,0.00,,,0.00,Wunderground v.1.15,2013-07-22 14:25:00,
2013-07-22 07:30:00,61.5,56.0,29.89,ESE,113,0.0,0.0,82,0.00,,,0.00,Wunderground v.1.15,2013-07-22 14:30:00,
2013-07-22 07:40:00,62.2,56.0,29.89,ESE,113,0.0,0.0,80,0.00,,,0.00,Wunderground v.1.15,2013-07-22 14:40:00,
2013-07-22 07:50:00,62.8,56.2,29.89,ESE,113,0.0,0.0,79,0.00,,,0.00,Wunderground v.1.15,2013-07-22 14:50:00,
2013-07-22 08:00:00,63.5,56.2,29.89,ESE,113,0.0,0.0,77,0.00,,,0.00,Wunderground v.1.15,2013-07-22 15:00:00,
2013-07-22 08:15:00,64.3,56.2,29.90,ESE,113,0.0,0.0,75,0.00,,,0.00,Wunderground v.1.15,2013-07-22 15:15:00,
2013-07-22 08:20:00,64.9,56.4,29.90,ESE,113,0.0,0.0,74,0.00,,,0.00,Wunderground v.1.15,2013-07-22 15:20:00,
2013-07-22 08:30:00,65.8,56.9,29.89,ESE,113,0.0,0.0,73,0.00,,,0.00,Wunderground v.1.15,2013-07-22 15:30:00,
2013-07-22 08:50:00,67.8,57.3,29.90,ESE,113,0.0,0.0,69,0.00,,,0.00,Wunderground v.1.15,2013-07-22 15:50:00,
2013-07-22 09:00:00,68.0,57.0,29.90,ESE,107,1.0,1.0,68,0.00,,,0.00,Wunderground v.1.15,2013-07-22 16:00:00,
2013-07-22 09:05:00,68.4,57.0,29.90,ESE,108,0.0,1.0,67,0.00,,,0.00,Wunderground v.1.15,2013-07-22 16:05:00,
2013-07-22 09:15:00,69.3,57.0,29.90,ESE,109,1.0,2.0,65,0.00,,,0.00,Wunderground v.1.15,2013-07-22 16:15:00,
2013-07-22 09:25:00,70.2,57.0,29.90,ESE,115,1.0,1.0,63,0.00,,,0.00,Wunderground v.1.15,2013-07-22 16:25:00,
2013-07-22 09:30:00,70.8,57.1,29.89,ESE,103,1.0,1.0,62,0.00,,,0.00,Wunderground v.1.15,2013-07-22 16:30:00,
2013-07-22 09:40:00,71.2,57.1,29.89,East,98,1.0,1.0,61,0.00,,,0.00,Wunderground v.1.15,2013-07-22 16:40:00,
2013-07-22 09:50:00,71.6,57.4,29.89,ESE,115,0.0,2.0,61,0.00,,,0.00,Wunderground v.1.15,2013-07-22 16:50:00,
2013-07-22 10:00:00,72.8,57.6,29.89,SE,145,0.0,1.0,59,0.00,,,0.00,Wunderground v.1.15,2013-07-22 17:00:00,
2013-07-22 10:10:00,74.0,58.8,29.89,SE,142,0.0,0.0,59,0.00,,,0.00,Wunderground v.1.15,2013-07-22 17:10:00,
2013-07-22 10:20:00,75.2,58.9,29.89,SSW,198,1.0,1.0,57,0.00,,,0.00,Wunderground v.1.15,2013-07-22 17:20:00,
2013-07-22 10:25:00,75.7,59.4,29.89,SSW,209,1.0,1.0,57,0.00,,,0.00,Wunderground v.1.15,2013-07-22 17:25:00,
2013-07-22 10:35:00,76.6,59.7,29.89,WSW,247,0.0,0.0,56,0.00,,,0.00,Wunderground v.1.15,2013-07-22 17:35:00,
2013-07-22 10:40:00,77.1,59.7,29.89,SSW,209,0.0,1.0,55,0.00,,,0.00,Wunderground v.1.15,2013-07-22 17:40:00,
2013-07-22 10:50:00,77.5,60.1,29.89,SSE,158,0.0,4.0,55,0.00,,,0.00,Wunderground v.1.15,2013-07-22 17:50:00,
2013-07-22 10:55:00,77.8,59.3,29.89,SSE,162,0.0,4.0,53,0.00,,,0.00,Wunderground v.1.15,2013-07-22 17:55:00,
2013-07-22 11:00:00,78.3,58.7,29.89,SSE,149,1.0,1.0,51,0.00,,,0.00,Wunderground v.1.15,2013-07-22 18:00:00,
2013-07-22 11:10:00,78.7,58.5,29.89,ESE,107,1.0,1.0,50,0.00,,,0.00,Wunderground v.1.15,2013-07-22 18:10:00,
2013-07-22 11:15:00,79.1,58.3,29.89,East,92,1.0,1.0,49,0.00,,,0.00,Wunderground v.1.15,2013-07-22 18:15:00,
2013-07-22 11:20:00,79.7,58.3,29.89,SE,143,1.0,1.0,48,0.00,,,0.00,Wunderground v.1.15,2013-07-22 18:20:00,
2013-07-22 11:30:00,80.9,59.4,29.88,SSW,203,1.0,4.0,48,0.00,,,0.00,Wunderground v.1.15,2013-07-22 18:30:00,
2013-07-22 11:35:00,81.5,58.7,29.88,East,86,1.0,4.0,46,0.00,,,0.00,Wunderground v.1.15,2013-07-22 18:35:00,
2013-07-22 11:50:00,83.2,59.6,29.88,SSW,202,0.0,2.0,45,0.00,,,0.00,Wunderground v.1.15,2013-07-22 18:50:00,
2013-07-22 11:55:00,83.3,61.6,29.88,SSW,200,0.0,2.0,48,0.00,,,0.00,Wunderground v.1.15,2013-07-22 18:55:00,
2013-07-22 12:10:00,83.5,58.0,29.88,East,94,0.0,1.0,42,0.00,,,0.00,Wunderground v.1.15,2013-07-22 19:10:00,
2013-07-22 12:20:00,84.7,59.7,29.88,SSW,198,0.0,0.0,43,0.00,,,0.00,Wunderground v.1.15,2013-07-22 19:20:00,
2013-07-22 12:30:00,85.9,56.6,29.88,SW,215,1.0,1.0,37,0.00,,,0.00,Wunderground v.1.15,2013-07-22 19:30:00,
2013-07-22 12:40:00,86.8,58.9,29.88,SSW,207,0.0,1.0,39,0.00,,,0.00,Wunderground v.1.15,2013-07-22 19:40:00,
2013-07-22 12:55:00,88.5,56.6,29.87,South,171,1.0,1.0,34,0.00,,,0.00,Wunderground v.1.15,2013-07-22 19:55:00,
2013-07-22 13:00:00,88.5,58.1,29.87,SSE,147,1.0,2.0,36,0.00,,,0.00,Wunderground v.1.15,2013-07-22 20:00:00,
2013-07-22 13:05:00,88.5,57.4,29.87,SE,137,1.0,2.0,35,0.00,,,0.00,Wunderground v.1.15,2013-07-22 20:05:00,
2013-07-22 13:15:00,88.8,58.4,29.87,ESE,119,1.0,1.0,36,0.00,,,0.00,Wunderground v.1.15,2013-07-22 20:15:00,
2013-07-22 13:20:00,87.2,57.8,29.87,ESE,115,2.0,6.0,37,0.00,,,0.00,Wunderground v.1.15,2013-07-22 20:20:00,
2013-07-22 13:25:00,86.4,56.3,29.87,SSE,166,3.0,6.0,36,0.00,,,0.00,Wunderground v.1.15,2013-07-22 20:25:00,
2013-07-22 13:30:00,86.7,55.8,29.87,East,88,2.0,2.0,35,0.00,,,0.00,Wunderground v.1.15,2013-07-22 20:30:00,
2013-07-22 13:40:00,87.1,56.9,29.87,South,178,1.0,2.0,36,0.00,,,0.00,Wunderground v.1.15,2013-07-22 20:40:00,
2013-07-22 13:45:00,87.5,56.5,29.87,East,92,1.0,4.0,35,0.00,,,0.00,Wunderground v.1.15,2013-07-22 20:45:00,
2013-07-22 13:55:00,86.4,54.7,29.86,East,94,3.0,5.0,34,0.00,,,0.00,Wunderground v.1.15,2013-07-22 20:55:00,
2013-07-22 14:00:00,85.1,55.9,29.86,SSE,161,4.0,4.0,37,0.00,,,0.00,Wunderground v.1.15,2013-07-22 21:00:00,
2013-07-22 14:05:00,85.1,56.6,29.87,ESE,118,2.0,4.0,38,0.00,,,0.00,Wunderground v.1.15,2013-07-22 21:05:00,
2013-07-22 14:10:00,84.7,56.3,29.87,East,97,2.0,2.0,38,0.00,,,0.00,Wunderground v.1.15,2013-07-22 21:10:00,
2013-07-22 14:20:00,82.9,56.8,29.88,ESE,117,3.0,3.0,41,0.00,,,0.00,Wunderground v.1.15,2013-07-22 21:20:00,
2013-07-22 14:25:00,82.9,57.5,29.87,South,186,2.0,3.0,42,0.00,,,0.00,Wunderground v.1.15,2013-07-22 21:25:00,
2013-07-22 14:35:00,82.3,57.6,29.87,East,96,2.0,2.0,43,0.00,,,0.00,Wunderground v.1.15,2013-07-22 21:35:00,
2013-07-22 14:50:00,80.3,57.0,29.87,ESE,105,3.0,4.0,45,0.00,,,0.00,Wunderground v.1.15,2013-07-22 21:50:00,
2013-07-22 15:00:00,79.5,56.9,29.87,ESE,111,3.0,3.0,46,0.00,,,0.00,Wunderground v.1.15,2013-07-22 22:00:00,
2013-07-22 15:10:00,79.5,56.9,29.85,SE,144,2.0,2.0,46,0.00,,,0.00,Wunderground v.1.15,2013-07-22 22:10:00,
2013-07-22 15:15:00,80.0,56.7,29.85,SE,146,1.0,2.0,45,0.00,,,0.00,Wunderground v.1.15,2013-07-22 22:15:00,
2013-07-22 15:25:00,80.0,55.5,29.86,East,101,1.0,1.0,43,0.00,,,0.00,Wunderground v.1.15,2013-07-22 22:25:00,
2013-07-22 15:30:00,79.8,55.9,29.86,ESE,103,3.0,5.0,44,0.00,,,0.00,Wunderground v.1.15,2013-07-22 22:30:00,
2013-07-22 15:40:00,79.7,57.7,29.86,West,264,2.0,2.0,47,0.00,,,0.00,Wunderground v.1.15,2013-07-22 22:40:00,
2013-07-22 15:45:00,79.7,57.7,29.87,ESE,105,1.0,2.0,47,0.00,,,0.00,Wunderground v.1.15,2013-07-22 22:45:00,
2013-07-22 15:55:00,79.5,58.7,29.87,South,187,1.0,2.0,49,0.00,,,0.00,Wunderground v.1.15,2013-07-22 22:55:00,
2013-07-22 16:05:00,79.3,58.5,29.87,ESE,107,1.0,5.0,49,0.00,,,0.00,Wunderground v.1.15,2013-07-22 23:05:00,
2013-07-22 16:10:00,79.2,58.4,29.87,East,88,1.0,1.0,49,0.00,,,0.00,Wunderground v.1.15,2013-07-22 23:10:00,
2013-07-22 16:20:00,79.1,58.9,29.87,East,90,1.0,1.0,50,0.00,,,0.00,Wunderground v.1.15,2013-07-22 23:20:00,
2013-07-22 16:30:00,79.1,58.9,29.87,ESE,117,1.0,1.0,50,0.00,,,0.00,Wunderground v.1.15,2013-07-22 23:30:00,
2013-07-22 16:40:00,79.1,58.9,29.87,ESE,107,1.0,1.0,50,0.00,,,0.00,Wunderground v.1.15,2013-07-22 23:40:00,
2013-07-22 16:50:00,78.9,58.7,29.86,East,101,2.0,4.0,50,0.00,,,0.00,Wunderground v.1.15,2013-07-22 23:50:00,
2013-07-22 16:55:00,78.9,59.2,29.87,East,97,2.0,4.0,51,0.00,,,0.00,Wunderground v.1.15,2013-07-22 23:55:00,
2013-07-22 17:05:00,78.8,59.1,29.87,East,97,1.0,1.0,51,0.00,,,0.00,Wunderground v.1.15,2013-07-23 00:05:00,
2013-07-22 17:10:00,79.0,59.3,29.87,ESE,109,1.0,2.0,51,0.00,,,0.00,Wunderground v.1.15,2013-07-23 00:10:00,
2013-07-22 17:20:00,79.6,59.3,29.87,SE,134,0.0,0.0,50,0.00,,,0.00,Wunderground v.1.15,2013-07-23 00:20:00,
2013-07-22 17:30:00,79.8,59.5,29.87,ESE,123,1.0,4.0,50,0.00,,,0.00,Wunderground v.1.15,2013-07-23 00:30:00,
2013-07-22 17:40:00,79.4,59.1,29.88,ESE,111,0.0,0.0,50,0.00,,,0.00,Wunderground v.1.15,2013-07-23 00:40:00,
2013-07-22 17:50:00,79.2,57.8,29.88,SSE,148,0.0,0.0,48,0.00,,,0.00,Wunderground v.1.15,2013-07-23 00:50:00,
2013-07-22 17:55:00,78.9,57.5,29.88,South,172,1.0,1.0,48,0.00,,,0.00,Wunderground v.1.15,2013-07-23 00:55:00,
2013-07-22 18:05:00,78.8,56.9,29.88,SSE,159,0.0,1.0,47,0.00,,,0.00,Wunderground v.1.15,2013-07-23 01:05:00,
2013-07-22 18:10:00,78.8,56.3,29.89,SSE,161,0.0,0.0,46,0.00,,,0.00,Wunderground v.1.15,2013-07-23 01:10:00,
2013-07-22 18:15:00,78.7,56.2,29.89,SE,132,0.0,0.0,46,0.00,,,0.00,Wunderground v.1.15,2013-07-23 01:15:00,
2013-07-22 18:20:00,78.7,56.8,29.89,SE,134,0.0,0.0,47,0.00,,,0.00,Wunderground v.1.15,2013-07-23 01:20:00,
2013-07-22 18:25:00,78.7,56.8,29.89,SE,134,0.0,0.0,47,0.00,,,0.00,Wunderground v.1.15,2013-07-23 01:25:00,
2013-07-22 18:35:00,78.7,55.6,29.89,SE,145,0.0,0.0,45,0.00,,,0.00,Wunderground v.1.15,2013-07-23 01:35:00,
2013-07-22 18:45:00,78.5,57.7,29.88,SE,146,1.0,1.0,49,0.00,,,0.00,Wunderground v.1.15,2013-07-23 01:45:00,
2013-07-22 18:55:00,77.1,57.6,29.88,SSE,151,0.0,1.0,51,0.00,,,0.00,Wunderground v.1.15,2013-07-23 01:55:00,
2013-07-22 19:00:00,76.6,57.7,29.88,SSE,154,0.0,0.0,52,0.00,,,0.00,Wunderground v.1.15,2013-07-23 02:00:00,
2013-07-22 19:05:00,76.3,52.8,29.88,SSE,164,1.0,1.0,44,0.00,,,0.00,Wunderground v.1.15,2013-07-23 02:05:00,
2013-07-22 19:15:00,77.1,52.2,29.89,SSW,200,1.0,1.0,42,0.00,,,0.00,Wunderground v.1.15,2013-07-23 02:15:00,
2013-07-22 19:20:00,77.2,53.0,29.89,SW,225,0.0,1.0,43,0.00,,,0.00,Wunderground v.1.15,2013-07-23 02:20:00,
2013-07-22 19:30:00,76.8,53.8,29.89,South,175,0.0,1.0,45,0.00,,,0.00,Wunderground v.1.15,2013-07-23 02:30:00,
2013-07-22 19:35:00,76.4,54.1,29.89,North,9,1.0,1.0,46,0.00,,,0.00,Wunderground v.1.15,2013-07-23 02:35:00,
2013-07-22 19:40:00,76.0,53.7,29.88,South,175,1.0,1.0,46,0.00,,,0.00,Wunderground v.1.15,2013-07-23 02:40:00,
2013-07-22 19:45:00,75.7,54.0,29.88,South,187,1.0,1.0,47,0.00,,,0.00,Wunderground v.1.15,2013-07-23 02:45:00,
2013-07-22 19:55:00,75.4,53.8,29.88,SSE,166,1.0,1.0,47,0.00,,,0.00,Wunderground v.1.15,2013-07-23 02:55:00,
2013-07-22 20:00:00,75.3,53.7,29.88,SW,222,1.0,1.0,47,0.00,,,0.00,Wunderground v.1.15,2013-07-23 03:00:00,
2013-07-22 20:05:00,75.1,54.1,29.88,SSW,194,1.0,1.0,48,0.00,,,0.00,Wunderground v.1.15,2013-07-23 03:05:00,
2013-07-22 20:14:00,74.8,54.4,29.89,East,99,0.0,1.0,49,0.00,,,0.00,Wunderground v.1.15,2013-07-23 03:14:00,
2013-07-22 20:20:00,74.6,54.2,29.90,SE,140,0.0,0.0,49,0.00,,,0.00,Wunderground v.1.15,2013-07-23 03:20:00,
2013-07-22 20:30:00,74.0,54.7,29.90,SE,129,0.0,0.0,51,0.00,,,0.00,Wunderground v.1.15,2013-07-23 03:30:00,
2013-07-22 20:35:00,73.7,54.4,29.90,SE,130,0.0,0.0,51,0.00,,,0.00,Wunderground v.1.15,2013-07-23 03:35:00,
2013-07-22 20:45:00,73.4,54.7,29.90,SE,130,0.0,0.0,52,0.00,,,0.00,Wunderground v.1.15,2013-07-23 03:45:00,
2013-07-22 20:55:00,72.9,54.8,29.90,ESE,117,0.0,0.0,53,0.00,,,0.00,Wunderground v.1.15,2013-07-23 03:55:00,
2013-07-22 21:05:00,72.6,54.5,29.91,ESE,117,0.0,1.0,53,0.00,,,0.00,Wunderground v.1.15,2013-07-23 04:05:00,
2013-07-22 21:10:00,72.5,55.9,29.91,ESE,117,0.0,0.0,56,0.00,,,0.00,Wunderground v.1.15,2013-07-23 04:10:00,
2013-07-22 21:15:00,72.3,56.2,29.91,ESE,117,0.0,0.0,57,0.00,,,0.00,Wunderground v.1.15,2013-07-23 04:15:00,
2013-07-22 21:20:00,71.9,55.8,29.91,ESE,117,0.0,0.0,57,0.00,,,0.00,Wunderground v.1.15,2013-07-23 04:20:00,
2013-07-22 21:25:00,71.4,55.9,29.91,ESE,117,0.0,0.0,58,0.00,,,0.00,Wunderground v.1.15,2013-07-23 04:25:00,
2013-07-22 21:30:00,71.1,56.0,29.91,ESE,117,0.0,0.0,59,0.00,,,0.00,Wunderground v.1.15,2013-07-23 04:30:00,
2013-07-22 21:35:00,70.7,56.1,29.91,ESE,117,0.0,0.0,60,0.00,,,0.00,Wunderground v.1.15,2013-07-23 04:35:00,
2013-07-22 21:45:00,70.2,56.6,29.91,ESE,117,0.0,0.0,62,0.00,,,0.00,Wunderground v.1.15,2013-07-23 04:45:00,
2013-07-22 21:55:00,69.7,56.5,29.91,ESE,117,0.0,0.0,63,0.00,,,0.00,Wunderground v.1.15,2013-07-23 04:55:00,
2013-07-22 22:05:00,69.4,56.3,29.91,ESE,117,0.0,0.0,63,0.00,,,0.00,Wunderground v.1.15,2013-07-23 05:05:00,
2013-07-22 22:10:00,69.2,56.1,29.91,ESE,117,0.0,0.0,63,0.00,,,0.00,Wunderground v.1.15,2013-07-23 05:10:00,
2013-07-22 22:20:00,69.0,56.3,29.91,ESE,117,0.0,0.0,64,0.00,,,0.00,Wunderground v.1.15,2013-07-23 05:20:00,
2013-07-22 22:25:00,68.9,55.8,29.91,ESE,117,0.0,0.0,63,0.00,,,0.00,Wunderground v.1.15,2013-07-23 05:25:00,
2013-07-22 22:30:00,68.8,56.1,29.91,ESE,117,0.0,0.0,64,0.00,,,0.00,Wunderground v.1.15,2013-07-23 05:30:00,
2013-07-22 22:35:00,68.8,56.1,29.91,ESE,117,0.0,0.0,64,0.00,,,0.00,Wunderground v.1.15,2013-07-23 05:35:00,
2013-07-22 22:40:00,68.7,56.0,29.91,ESE,117,0.0,0.0,64,0.00,,,0.00,Wunderground v.1.15,2013-07-23 05:40:00,
2013-07-22 22:45:00,68.7,56.0,29.91,ESE,117,0.0,0.0,64,0.00,,,0.00,Wunderground v.1.15,2013-07-23 05:45:00,
2013-07-22 22:55:00,68.8,55.7,29.90,ESE,117,0.0,0.0,63,0.00,,,0.00,Wunderground v.1.15,2013-07-23 05:55:00,
2013-07-22 23:00:00,68.8,55.7,29.90,ESE,117,0.0,0.0,63,0.00,,,0.00,Wunderground v.1.15,2013-07-23 06:00:00,
2013-07-22 23:10:00,69.0,55.4,29.90,ESE,117,0.0,0.0,62,0.00,,,0.00,Wunderground v.1.15,2013-07-23 06:10:00,
2013-07-22 23:15:00,69.0,55.4,29.89,ESE,117,0.0,0.0,62,0.00,,,0.00,Wunderground v.1.15,2013-07-23 06:15:00,
2013-07-22 23:30:00,69.2,55.2,29.90,ESE,117,0.0,0.0,61,0.00,,,0.00,Wunderground v.1.15,2013-07-23 06:30:00,
2013-07-22 23:40:00,69.1,55.1,29.92,ESE,117,1.0,4.0,61,0.00,,,0.00,Wunderground v.1.15,2013-07-23 06:40:00,
2013-07-22 23:50:00,69.3,54.8,29.92,ESE,109,1.0,5.0,60,0.00,,,0.00,Wunderground v.1.15,2013-07-23 06:50:00,
2013-07-22 23:55:00,69.3,54.8,29.91,ESE,119,2.0,5.0,60,0.00,,,0.00,Wunderground v.1.15,2013-07-23 06:55:00,